Regional Weather Roundup
Issued by NWS Northern Indiana

Home | Current Version | Previous Version | Graphics & Text | Print | Product List | Glossary On
Versions: 1 2 3 4 5 6 7 8 9 10 11 12 13 14 15 16 17 18 19 20 21 22 23 24 25 26 27 28 29 30 31 32 33 34 35 36 37 38 39 40 41 42 43 44 45 46 47 48 49 50
000
ASUS43 KIWX 210200
RWRIWX

KIWX WEATHER ROUNDUP
NATIONAL WEATHER SERVICE NORTHERN INDIANA
1000 PM EDT FRI OCT 20 2017

NOTE: "FAIR" INDICATES FEW OR NO CLOUDS BELOW 12,000 FEET WITH NO
SIGNIFICANT WEATHER AND/OR OBSTRUCTIONS TO VISIBILITY.

* THESE STATIONS ARE NOT UNDER NWS QUALITY CONTROL. THEY ALSO MAY NOT
  REPORT WEATHER SUCH AS PRECIPITATION OR FOG.

INZ001>027-210300-
NORTHERN INDIANA

CITY           SKY/WX    TMP DP  RH WIND       PRES   REMARKS
GARY*          MOCLDY    68  48  49 VRB5      30.08S
MICHIGAN CITY* CLOUDY    64  48  55 S8        30.09S
LAPORTE*       PTCLDY    62  49  61 S5        30.11S
KNOX*          MOCLDY    55  48  76 S6        30.10S
SOUTH BEND     CLEAR     61  51  70 S8        30.11F
GOSHEN         CLEAR     60  48  64 S9        30.12F
MONTICELLO*    CLOUDY    62  48  60 SE3       30.11F
WARSAW*        CLEAR     55  50  82 CALM      30.14R
AUBURN*        CLEAR     59  48  67 CALM      30.15S
FORT WAYNE     PTCLDY    59  49  69 S5        30.16R
PERU/GRISSOM   CLOUDY    58  49  72 S7        30.13S

$$
INZ028>050-210300-
CENTRAL INDIANA

CITY           SKY/WX    TMP DP  RH WIND       PRES   REMARKS
LAFAYETTE      PTCLDY    61  49  64 CALM      30.12S
KOKOMO*        CLOUDY    58  50  75 S8        30.15S
MUNCIE*        CLOUDY    66  51  58 S7        30.16F
INDIANAPOLIS   CLOUDY    61  50  67 SE7       30.15S

$$
MIZ043>046-050>051-056>058-064>065-071>073-077>080-210300-
SOUTHWEST LOWER MICHIGAN

CITY           SKY/WX    TMP DP  RH WIND       PRES   REMARKS
BATTLE CREEK   CLEAR     62  52  69 S8        30.13R
BENTON HARBOR  PTCLDY    63  49  60 SE7       30.08F
COLDWATER*     CLEAR     53  50  90 SE3       30.13S
HILLSDALE*     CLEAR     61  50  67 S7        30.14S
HOLLAND        PTCLDY    60  50  69 S7        30.09S
GRAND RAPIDS   PTCLDY    63  53  70 S7        30.10R
KALAMAZOO      CLEAR     63  50  62 S6        30.12S
STURGIS*       CLEAR     57  50  78 S3        30.13R
THREE RIVERS*  FAIR      60  51  71 S5        30.12S

$$
OHZ001>008-015>018-024>025-210300-
NORTHWEST OHIO

CITY           SKY/WX    TMP DP  RH WIND       PRES   REMARKS
DEFIANCE       CLEAR     64  50  60 S7        30.15F
FINDLAY        CLEAR     58  45  62 S8        30.17S
TOLEDO EXPRESS CLEAR     63  50  62 S7        30.16R
TOLEDO METCALF CLEAR     59  46  62 S8        30.17S
LIMA           CLEAR     58  50  75 S6        30.18S

$$
AND FOR LAKE MICHIGAN COASTAL AND OPEN LAKE BUOY OBSERVATIONS

STATION/POSITION TEMP    WIND        PRES    VSBY  WAVE
                 AIR SEA DIR/SP/G                  HT/PER
                 (F)     (DEG/KT/KT) (MB)    (MI)  (FT/S)
CALUMET HARBOR    69     160/  7/ 11 1017.3S
MICHIGAN CITY     69     160/ 13/ 17   N/A
BURNS HARBOR      68     180/  9/ 14 1018.6F
SAINT JOSEPH      67     160/  2/  7 1019.6
SOUTH LAKE BUOY   65 61  160/ 14/ 16 1017.5          1/ 3
4 MI NW BRIDGMAN  63 59  190/  6/  8 1018.7F         1
MICHIGAN CITY     64 58  190/ 10/ 12   N/A           1

$$
&&



USA.gov is the U.S. government's official web portal to all federal, state and local government web resources and services.